This is the latest recevied weather packets stored in our database for station/object KC3ELT-10. If no packets are shown the sender has not sent any weather packets the latest 10 day(s).
| Time | Temp. | Humidity | Pressure | Rain* | Wind** | Luminosity | Snow |
|---|---|---|---|---|---|---|---|
| 1778008379 | 25° C | 36% | 1002.1 hPa | 0 mm | 2.68 m/s, 190° | - | - |
| 1778008079 | 25.56° C | 35% | 1002.1 hPa | 0 mm | 7.15 m/s, 176° | - | - |
| 1778007779 | 25.56° C | 34% | 1002.1 hPa | 0 mm | 4.47 m/s, 229° | - | - |
| 1778007479 | 25.56° C | 34% | 1002.3 hPa | 0 mm | 2.68 m/s, 202° | - | - |
| 1778007179 | 25.56° C | 34% | 1002.3 hPa | 0 mm | 2.24 m/s, 207° | - | - |
| 1778006879 | 26.11° C | 34% | 1002.3 hPa | 0 mm | 3.13 m/s, 185° | - | - |
| 1778006579 | 26.11° C | 34% | 1002.4 hPa | 0 mm | 3.13 m/s, 307° | - | - |
| 1778006279 | 25.56° C | 34% | 1002.4 hPa | 0 mm | 1.79 m/s, 210° | - | - |
| 1778005979 | 25.56° C | 34% | 1002.4 hPa | 0 mm | 1.34 m/s, 228° | - | - |
| 1778005679 | 25.56° C | 34% | 1002.6 hPa | 0 mm | 2.68 m/s, 231° | - | - |
| 1778005379 | 25.56° C | 35% | 1002.6 hPa | 0 mm | 1.79 m/s, 187° | - | - |
| 1778005079 | 25.56° C | 34% | 1002.6 hPa | 0 mm | 2.24 m/s, 222° | - | - |
| 1778004779 | 26.11° C | 37% | 1002.7 hPa | 0 mm | 3.13 m/s, 262° | - | - |
| 1778004479 | 25.56° C | 40% | 1002.7 hPa | 0 mm | 0.89 m/s, 203° | - | - |
| 1778004179 | 25.56° C | 38% | 1002.7 hPa | 0 mm | 2.24 m/s, 142° | - | - |
| 1778003879 | 25.56° C | 37% | 1002.9 hPa | 0 mm | 0.89 m/s, 248° | - | - |
| 1778003579 | 25.56° C | 39% | 1002.9 hPa | 0 mm | 2.68 m/s, 257° | - | - |
| 1778003279 | 25° C | 37% | 1002.9 hPa | 0 mm | 1.79 m/s, 173° | - | - |
| 1778002979 | 25° C | 38% | 1002.9 hPa | 0 mm | 0.89 m/s, 281° | - | - |
| 1778002679 | 25.56° C | 40% | 1002.9 hPa | 0 mm | 4.47 m/s, 175° | - | - |
| 1778002379 | 25° C | 40% | 1002.9 hPa | 0 mm | 1.79 m/s, 187° | - | - |
| 1778002079 | 25° C | 42% | 1003.2 hPa | 0 mm | 1.34 m/s, 219° | - | - |
| 1778001779 | 25° C | 42% | 1003.2 hPa | 0 mm | 4.02 m/s, 284° | - | - |
| 1778001479 | 25° C | 43% | 1003.2 hPa | 0 mm | 3.13 m/s, 217° | - | - |
| 1778001179 | 25° C | 43% | 1003.3 hPa | 0 mm | 1.79 m/s, 205° | - | - |
* Rain latest hour (hover to see other rain measurements)
** Current wind speed in m/s (hover to see current wind gust speed)